Date,TemperatureHighF,TemperatureAvgF,TemperatureLowF,DewpointHighF,DewpointAvgF,DewpointLowF,HumidityHigh,HumidityAvg,HumidityLow,PressureMaxIn,PressureMinIn,WindSpeedMaxMPH,WindSpeedAvgMPH,GustSpeedMaxMPH,PrecipitationSumIn
2012-12-1,57.0,45.4,34.0,33.0,29.8,26.0,75,55,36,0.00,40.00,12,3,23,0.00
2012-12-2,58.0,39.9,28.0,33.0,26.3,22.0,88,62,27,0.00,40.00,11,4,25,0.00
2012-12-3,50.0,40.9,31.0,40.0,30.2,21.0,94,67,37,0.00,40.00,10,4,19,0.00
2012-12-4,45.0,33.6,24.0,26.0,21.3,17.0,86,64,33,0.00,40.00,9,3,15,0.00
2012-12-5,50.0,36.5,27.0,36.0,26.9,19.0,85,69,35,0.00,40.00,16,2,24,0.00
2012-12-6,48.0,38.5,33.0,37.0,31.5,-99.9,89,79,57,0.00,40.00,12,-12,18,0.00
2012-12-7,46.0,38.0,32.0,36.0,30.0,22.0,96,74,47,0.00,40.00,9,5,18,0.00
2012-12-8,41.0,35.5,22.0,28.0,21.8,19.0,98,59,41,0.00,40.00,16,0,29,0.00
2012-12-9,24.0,17.4,9.0,22.0,13.6,3.0,98,85,58,0.00,40.00,9,-28,12,0.00
2012-12-10,22.0,16.6,8.0,18.0,10.8,3.0,94,77,64,0.00,40.00,14,7,24,0.00
2012-12-11,32.0,23.5,19.0,32.0,18.7,16.0,92,81,63,0.00,40.00,10,6,16,0.00
2012-12-12,40.0,26.8,15.0,28.0,20.8,13.0,89,77,53,0.00,40.00,9,4,14,0.00
2012-12-13,43.0,32.4,26.0,28.0,25.4,22.0,88,76,52,0.00,40.00,7,2,12,0.00
2012-12-14,34.0,28.6,23.0,33.0,23.7,18.0,98,81,58,0.00,40.00,9,2,16,0.00
2012-12-15,34.0,32.1,27.0,33.0,29.5,24.0,98,90,71,0.00,40.00,7,-3,12,0.00
2012-12-16,32.0,28.8,26.0,32.0,24.8,21.0,94,84,64,0.00,40.00,14,6,24,0.00
2012-12-17,34.0,30.8,27.0,26.0,24.0,22.0,88,75,67,0.00,40.00,16,-13,27,0.00
2012-12-18,34.0,32.6,30.0,32.0,28.7,25.0,96,85,69,0.00,40.00,9,4,16,0.00
2012-12-19,31.0,20.3,5.0,31.0,13.2,-2.0,98,77,31,0.00,40.00,9,5,17,0.00
2012-12-20,17.0,3.4,-7.0,3.0,-3.3,-11.0,85,74,52,0.00,40.00,4,1,9,0.00
2012-12-21,20.0,4.0,-7.0,7.0,-1.9,-10.0,84,76,53,0.00,40.00,6,1,12,0.00
2012-12-22,21.0,6.3,-4.0,10.0,1.2,-8.0,86,79,60,0.00,40.00,6,1,11,0.00
2012-12-23,29.0,14.8,6.0,18.0,10.2,3.0,92,81,59,0.00,40.00,4,1,9,0.00
2012-12-24,30.0,24.3,19.0,29.0,23.0,17.0,96,94,92,0.00,40.00,6,2,11,0.00
2012-12-25,30.0,23.6,12.0,28.0,14.3,7.0,94,68,47,0.00,40.00,11,6,17,0.00
2012-12-26,27.0,17.6,8.0,23.0,12.5,4.0,88,80,63,0.00,40.00,12,4,21,0.00
2012-12-27,28.0,25.5,20.0,23.0,19.5,13.0,90,78,66,0.00,40.00,12,-14,21,0.00
2012-12-28,25.0,16.0,7.0,14.0,9.1,3.0,84,74,56,0.00,40.00,11,4,16,0.00
2012-12-29,17.0,7.3,-2.0,6.0,0.8,-6.0,83,74,57,0.00,40.00,3,1,12,0.00
2012-12-30,19.0,10.1,1.0,12.0,3.0,-3.0,84,73,59,0.00,40.00,5,1,11,0.00
2012-12-31,25.0,18.7,15.0,19.0,14.6,11.0,94,84,67,0.00,40.00,9,3,14,0.00